Tracking 25710 objects as of 6-Jul-2022
HD Live streaming from Space Station
objects crossing your sky now

FENGYUN 1C DEB

Track FENGYUN 1C DEB now!
10-day predictions


NORAD ID: 31624
Int'l Code: 1999-025CAE
Perigee: 712.0 km
Apogee: 787.9 km
Inclination: 99.7 °
Period: 99.7 minutes
Semi major axis: 7120 km
RCS: 0.0067 m2 (small)
Launch date: May 10, 1999
Source: People's Republic of China (PRC)
Launch site: Taiyaun Space Center, China (TSC)

Note: This is SATELLITE DEBRIS
aabbcc
Your satellite tracking list
Your tracking list is empty




NASA's NSSDC Master Catalog

Two Line Element Set (TLE):
1 31624U 99025CAE 22186.54325383  .00002475  00000-0  71636-3 0  9997
2 31624  99.6834 196.5876 0053318  39.2243 121.7605 14.44761225791580
Source of the keplerian elements: AFSPC